Weather History for College Park, MD

Change the Weather History Date:

Tuesday, February 11, 2014

  Actual Average Record
Temperature  
Mean Temperature 25 °F -  
Max Temperature 32 °F 44 °F 73 °F (2009)
Min Temperature 18 °F 24 °F 3 °F (1962)
Degree Days  
Heating Degree Days 40    
Moisture  
Dew Point 10 °F    
Average Humidity 55    
Maximum Humidity 84    
Minimum Humidity 35    
Precipitation  
Precipitation 0.00 in - - ()
Sea Level Pressure  
Sea Level Pressure 30.41 in    
Wind  
Wind Speed 3 mph (NNW)    
Max Wind Speed 8 mph    
Max Gust Speed -    
Visibility 10 miles    
Events      
Averages and records for this station are not official NWS values.
T = Trace of Precipitation, MM = Missing Value Source: NWS Daily Summary

Daily Weather History Graph

Daily Weather History Graph

Search for Another Location

Airport:

Trip Planner

Search our weather history database for the weather conditions in past years. The results will help you decide how hot, cold, wet, or windy it might be!

Date:

Astronomy

Feb. 11, 2014 Rise Set
Actual Time 7:03 AM EST 5:40 PM EST
Civil Twilight 6:36 AM EST 6:08 PM EST
Nautical Twilight 6:04 AM EST 6:39 PM EST
Astronomical Twilight 5:33 AM EST 7:10 PM EST
Moon 2:59 PM EST (2/11) 4:38 AM EST (2/11)
Length of Visible Light 11h 31m
Length of Day
10h 36m
Waxing Gibbous, 90% of the Moon is Illuminated
Feb 11
Waxing Gibbous
Feb 14
Full
Feb 22
Last Quarter
Mar 1
New
Mar 8
First Quarter

Hourly Weather History & Observations

Time (EST) Temp. Windchill Dew Point Humidity Pressure Visibility Wind Dir Wind Speed Gust Speed Precip Events Conditions
12:15 AM 24.3 °F 16.3 °F 9.1 °F 53% 30.34 in 10.0 mi NNW 6.9 mph - N/A   Clear
12:35 AM 23.7 °F - 9.5 °F 55% 30.35 in 10.0 mi Calm Calm - N/A   Clear
12:55 AM 23.7 °F - 9.3 °F 54% 30.35 in 10.0 mi Calm Calm - N/A   Clear
1:10 AM 23.5 °F - 9.3 °F 55% 30.35 in 10.0 mi Calm Calm - N/A   Clear
1:35 AM 21.0 °F - 11.3 °F 66% 30.35 in 10.0 mi Calm Calm - N/A   Clear
1:55 AM 19.4 °F - 12.9 °F 76% 30.35 in 10.0 mi Calm Calm - N/A   Clear
2:15 AM 19.2 °F - 13.1 °F 77% 30.35 in 10.0 mi Calm Calm - N/A   Clear
2:35 AM 18.3 °F - 12.4 °F 78% 30.35 in 10.0 mi Calm Calm - N/A   Clear
2:55 AM 18.3 °F - 12.9 °F 79% 30.35 in 10.0 mi Calm Calm - N/A   Clear
3:15 AM 18.5 °F - 12.0 °F 76% 30.35 in 10.0 mi Calm Calm - N/A   Clear
3:35 AM 18.7 °F - 12.4 °F 76% 30.36 in 10.0 mi Calm Calm - N/A   Clear
3:55 AM 18.3 °F - 13.1 °F 80% 30.37 in 10.0 mi Calm Calm - N/A   Clear
4:15 AM 19.8 °F 14.7 °F 11.7 °F 71% 30.36 in 10.0 mi NNW 3.5 mph - N/A   Clear
4:35 AM 20.8 °F 16.0 °F 10.8 °F 65% 30.37 in 10.0 mi NNW 3.5 mph - N/A   Clear
4:55 AM 21.0 °F 14.6 °F 10.6 °F 64% 30.38 in 10.0 mi NNW 4.6 mph - N/A   Clear
5:15 AM 21.7 °F 15.5 °F 9.9 °F 60% 30.38 in 10.0 mi NNW 4.6 mph - N/A   Clear
5:35 AM 21.7 °F 14.3 °F 9.5 °F 59% 30.39 in 10.0 mi NNW 5.8 mph - N/A   Clear
5:55 AM 21.7 °F 17.0 °F 8.8 °F 57% 30.39 in 10.0 mi NNW 3.5 mph - N/A   Clear
6:15 AM 21.6 °F 16.8 °F 8.8 °F 58% 30.40 in 10.0 mi NNW 3.5 mph - N/A   Clear
6:35 AM 20.8 °F 14.4 °F 9.3 °F 61% 30.41 in 10.0 mi NNW 4.6 mph - N/A   Clear
6:55 AM 20.7 °F 14.2 °F 9.1 °F 61% 30.41 in 10.0 mi NNW 4.6 mph - N/A   Clear
7:15 AM 20.3 °F 15.4 °F 9.3 °F 63% 30.42 in 10.0 mi NNW 3.5 mph - N/A   Clear
7:35 AM 20.7 °F 15.8 °F 9.7 °F 63% 30.43 in 10.0 mi NNW 3.5 mph - N/A   Clear
7:55 AM 22.1 °F 15.9 °F 10.4 °F 61% 30.43 in 10.0 mi NNW 4.6 mph - N/A   Clear
8:15 AM 22.8 °F 15.5 °F 9.9 °F 58% 30.43 in 10.0 mi NNW 5.8 mph - N/A   Clear
8:35 AM 23.9 °F 15.8 °F 9.9 °F 55% 30.44 in 10.0 mi NNW 6.9 mph - N/A   Clear
8:55 AM 24.8 °F 19.1 °F 9.1 °F 51% 30.45 in 10.0 mi North 4.6 mph - N/A   Clear
9:15 AM 25.5 °F 16.9 °F 8.8 °F 49% 30.44 in 10.0 mi NNW 8.1 mph - N/A   Clear
9:35 AM 25.9 °F 18.2 °F 8.4 °F 48% 30.45 in 10.0 mi NNW 6.9 mph - N/A   Clear
9:55 AM 26.6 °F 20.0 °F 8.6 °F 47% 30.45 in 10.0 mi North 5.8 mph - N/A   Clear
10:15 AM 26.6 °F 18.2 °F 8.4 °F 46% 30.45 in 10.0 mi NNE 8.1 mph - N/A   Clear
10:35 AM 27.3 °F 20.9 °F 8.4 °F 45% 30.44 in 10.0 mi NNE 5.8 mph - N/A   Clear
10:55 AM 28.2 °F 21.0 °F 7.5 °F 42% 30.43 in 10.0 mi NNW 6.9 mph - N/A   Clear
11:15 AM 28.8 °F 20.9 °F 8.1 °F 42% 30.43 in 10.0 mi NNW 8.1 mph - N/A   Clear
11:35 AM 28.2 °F - 6.8 °F 40% 30.43 in 10.0 mi Calm Calm - N/A   Clear
11:55 AM 29.5 °F 25.9 °F 7.5 °F 40% 30.43 in 10.0 mi WNW 3.5 mph - N/A   Clear
12:15 PM 30.0 °F 23.2 °F 8.2 °F 40% 30.42 in 10.0 mi North 6.9 mph - N/A   Clear
12:35 PM 30.4 °F 24.5 °F 7.7 °F 39% 30.41 in 10.0 mi NE 5.8 mph - N/A   Clear
12:55 PM 30.6 °F 23.1 °F 8.1 °F 39% 30.40 in 10.0 mi NW 8.1 mph - N/A   Clear
1:15 PM 30.7 °F 23.3 °F 7.7 °F 38% 30.39 in 10.0 mi NW 8.1 mph - N/A   Clear
1:35 PM 31.3 °F 26.6 °F 8.1 °F 38% 30.38 in 10.0 mi NNW 4.6 mph - N/A   Clear
1:55 PM 31.5 °F 25.8 °F 7.3 °F 36% 30.38 in 10.0 mi WNW 5.8 mph - N/A   Clear
2:15 PM 31.5 °F 24.9 °F 7.0 °F 36% 30.38 in 10.0 mi NW 6.9 mph - N/A   Clear
2:35 PM 31.8 °F 27.3 °F 7.3 °F 36% 30.38 in 10.0 mi NNE 4.6 mph - N/A   Clear
2:55 PM 32.0 °F 25.6 °F 7.2 °F 35% 30.38 in 10.0 mi NW 6.9 mph - N/A   Clear
3:15 PM 32.0 °F 26.4 °F 7.2 °F 35% 30.38 in 10.0 mi WNW 5.8 mph - N/A   Clear
3:35 PM 32.0 °F 27.5 °F 6.8 °F 35% 30.38 in 10.0 mi North 4.6 mph - N/A   Clear
3:55 PM 32.0 °F 26.4 °F 7.5 °F 36% 30.38 in 10.0 mi NNW 5.8 mph - N/A   Clear
4:15 PM 32.0 °F 28.7 °F 7.7 °F 36% 30.38 in 10.0 mi WNW 3.5 mph - N/A   Clear
4:35 PM 31.8 °F 28.5 °F 7.5 °F 36% 30.38 in 10.0 mi North 3.5 mph - N/A   Clear
4:50 PM 31.6 °F 26.0 °F 8.2 °F 38% 30.39 in 10.0 mi North 5.8 mph - N/A   Clear
5:15 PM 30.9 °F 26.2 °F 8.2 °F 39% 30.40 in 10.0 mi North 4.6 mph - N/A   Clear
5:35 PM 30.0 °F 26.5 °F 7.7 °F 39% 30.41 in 10.0 mi NNE 3.5 mph - N/A   Clear
5:55 PM 29.3 °F 24.3 °F 8.1 °F 41% 30.42 in 10.0 mi NNE 4.6 mph - N/A   Clear
6:15 PM 28.9 °F - 8.1 °F 41% 30.42 in 10.0 mi Calm Calm - N/A   Clear
6:35 PM 28.0 °F 22.8 °F 8.8 °F 44% 30.43 in 10.0 mi North 4.6 mph - N/A   Clear
6:55 PM 27.7 °F 23.8 °F 9.1 °F 46% 30.44 in 10.0 mi North 3.5 mph - N/A   Clear
7:15 PM 27.5 °F - 9.0 °F 46% 30.44 in 10.0 mi Calm Calm - N/A   Clear
7:35 PM 26.8 °F - 9.1 °F 47% 30.45 in 10.0 mi Calm Calm - N/A   Clear
7:55 PM 26.6 °F - 9.3 °F 48% 30.45 in 10.0 mi Calm Calm - N/A   Clear
8:15 PM 26.2 °F - 9.5 °F 49% 30.46 in 10.0 mi Calm Calm - N/A   Clear
8:35 PM 24.6 °F - 12.2 °F 59% 30.46 in 10.0 mi Calm Calm - N/A   Clear
8:55 PM 23.7 °F - 14.5 °F 68% 30.46 in 10.0 mi Calm Calm - N/A   Clear
9:15 PM 23.0 °F - 15.8 °F 74% 30.47 in 10.0 mi Calm Calm - N/A   Clear
9:35 PM 22.3 °F - 14.4 °F 72% 30.48 in 10.0 mi Calm Calm - N/A   Clear
9:55 PM 21.7 °F - 14.0 °F 72% 30.47 in 10.0 mi Calm Calm - N/A   Clear
10:15 PM 21.6 °F - 14.2 °F 73% 30.48 in 10.0 mi Calm Calm - N/A   Clear
10:35 PM 21.0 °F - 14.5 °F 76% 30.48 in 10.0 mi Calm Calm - N/A   Clear
10:55 PM 20.3 °F - 15.1 °F 80% 30.48 in 10.0 mi Calm Calm - N/A   Clear
11:15 PM 20.1 °F - 16.0 °F 84% 30.48 in 10.0 mi Calm Calm - N/A   Clear
11:35 PM 19.4 °F - 14.9 °F 83% 30.48 in 10.0 mi Calm Calm - N/A   Clear
11:55 PM 19.4 °F - 14.0 °F 80% 30.48 in 10.0 mi Calm Calm - N/A   Clear